| time (UTC) | temp F | wind direction | speed MPH | gust MPH | rain 1hr in | rain 24hr in | rain mn in | humidity % | barometer mb |
| 20260902140704 | 85 | 214 | 1.0 | 6.0 | 0.00 | 0.00 | 0.00 | 73 | 1017.0 |
| 20260902134704 | 83 | 221 | 2.0 | 5.0 | 0.00 | 0.00 | 0.00 | 73 | 1017.0 |
| 20260902134203 | 83 | 224 | 5.0 | 6.0 | 0.00 | 0.00 | 0.00 | 74 | 1017.0 |
| 20260902133704 | 83 | 235 | 2.0 | 3.0 | 0.00 | 0.00 | 0.00 | 74 | 1016.9 |
| 20260902133203 | 82 | 222 | 3.0 | 7.0 | 0.00 | 0.00 | 0.00 | 75 | 1017.0 |
| 20260902132703 | 82 | 228 | 1.0 | 6.0 | 0.00 | 0.00 | 0.00 | 75 | 1016.9 |
| 20260902132203 | 82 | 216 | 2.0 | 6.0 | 0.00 | 0.00 | 0.00 | 76 | 1016.9 |
| 20260902131704 | 81 | 213 | 0.0 | 5.0 | 0.00 | 0.00 | 0.00 | 76 | 1016.9 |
| 20260902131203 | 81 | 219 | 1.0 | 5.0 | 0.00 | 0.00 | 0.00 | 77 | 1016.9 |
| 20260902130703 | 81 | 224 | 1.0 | 5.0 | 0.00 | 0.00 | 0.00 | 77 | 1016.9 |
| 20260902130203 | 81 | 218 | 0.0 | 3.0 | 0.00 | 0.00 | 0.00 | 77 | 1016.9 |
| 20260902125703 | 80 | 234 | 1.0 | 5.0 | 0.00 | 0.00 | 0.00 | 77 | 1016.9 |
| 20260902125203 | 80 | 219 | 0.0 | 2.0 | 0.00 | 0.00 | 0.00 | 78 | 1016.9 |
| 20260902124703 | 80 | 219 | 2.0 | 5.0 | 0.00 | 0.00 | 0.00 | 78 | 1016.8 |
| 20260902124203 | 79 | 218 | 1.0 | 5.0 | 0.00 | 0.00 | 0.00 | 79 | 1016.8 |
| 20260902123703 | 79 | 216 | 1.0 | 2.0 | 0.00 | 0.00 | 0.00 | 79 | 1016.7 |
| 20260902123203 | 79 | 236 | 0.0 | 3.0 | 0.00 | 0.00 | 0.00 | 80 | 1016.7 |
| 20260902122703 | 78 | 198 | 1.0 | 5.0 | 0.00 | 0.00 | 0.00 | 80 | 1016.7 |
| 20260902122204 | 78 | 222 | 1.0 | 5.0 | 0.00 | 0.00 | 0.00 | 81 | 1016.7 |
| 20260902121703 | 78 | 62 | 2.0 | 5.0 | 0.00 | 0.00 | 0.00 | 81 | 1016.6 |
| 20260902120203 | 77 | 46 | 1.0 | 6.0 | 0.00 | 0.00 | 0.00 | 83 | 1016.6 |
| 20260902115703 | 76 | 43 | 1.0 | 3.0 | 0.00 | 0.00 | 0.00 | 83 | 1016.6 |
| 20260902115204 | 76 | 40 | 0.0 | 3.0 | 0.00 | 0.00 | 0.00 | 83 | 1016.5 |
| 20260902114704 | 76 | 38 | 0.0 | 2.0 | 0.00 | 0.00 | 0.00 | 83 | 1016.4 |
| 20260902114203 | 76 | 38 | 0.0 | 1.0 | 0.00 | 0.00 | 0.00 | 84 | 1016.4 |
| 20260902113703 | 76 | 44 | 0.0 | 1.0 | 0.00 | 0.00 | 0.00 | 84 | 1016.3 |
| 20260902112704 | 76 | 50 | 0.0 | 0.0 | 0.00 | 0.00 | 0.00 | 84 | 1016.2 |
| 20260902112203 | 76 | 51 | 0.0 | 0.0 | 0.00 | 0.00 | 0.00 | 84 | 1016.2 |
| 20260902111703 | 76 | 53 | 0.0 | 0.0 | 0.00 | 0.00 | 0.00 | 84 | 1016.1 |
| 20260902111203 | 76 | 53 | 0.0 | 0.0 | 0.00 | 0.00 | 0.00 | 84 | 1016.1 |
| 20260902110703 | 76 | 53 | 0.0 | 0.0 | 0.00 | 0.00 | 0.00 | 84 | 1016.1 |
| 20260902110203 | 76 | 53 | 0.0 | 0.0 | 0.00 | 0.00 | 0.00 | 83 | 1016.1 |
| 20260902105703 | 76 | 51 | 0.0 | 0.0 | 0.00 | 0.00 | 0.00 | 83 | 1016.1 |
| 20260902105203 | 76 | 51 | 0.0 | 0.0 | 0.00 | 0.00 | 0.00 | 83 | 1016.2 |
| 20260902104704 | 76 | 51 | 0.0 | 0.0 | 0.00 | 0.00 | 0.00 | 83 | 1016.2 |
| 20260902104204 | 76 | 50 | 0.0 | 0.0 | 0.00 | 0.00 | 0.00 | 83 | 1016.1 |
| 20260902103703 | 76 | 48 | 0.0 | 0.0 | 0.00 | 0.00 | 0.00 | 83 | 1016.2 |
| 20260902103203 | 76 | 47 | 0.0 | 0.0 | 0.00 | 0.00 | 0.00 | 83 | 1016.2 |
| 20260902102703 | 76 | 48 | 0.0 | 0.0 | 0.00 | 0.00 | 0.00 | 83 | 1016.1 |
| 20260902102203 | 76 | 48 | 0.0 | 0.0 | 0.00 | 0.00 | 0.00 | 83 | 1016.1 |
| 20260902101703 | 77 | 48 | 0.0 | 0.0 | 0.00 | 0.00 | 0.00 | 82 | 1016.0 |
| 20260902101203 | 77 | 49 | 0.0 | 0.0 | 0.00 | 0.00 | 0.00 | 82 | 1016.1 |
| 20260902100703 | 77 | 49 | 0.0 | 0.0 | 0.00 | 0.00 | 0.00 | 82 | 1016.1 |
| 20260902100203 | 77 | 48 | 0.0 | 0.0 | 0.00 | 0.00 | 0.00 | 82 | 1016.0 |
| 20260902095703 | 77 | 47 | 0.0 | 0.0 | 0.00 | 0.00 | 0.00 | 82 | 1016.0 |
| 20260902095204 | 77 | 47 | 0.0 | 0.0 | 0.00 | 0.00 | 0.00 | 82 | 1016.0 |
| 20260902094705 | 77 | 47 | 0.0 | 0.0 | 0.00 | 0.00 | 0.00 | 81 | 1016.0 |
| 20260902094203 | 77 | 46 | 0.0 | 0.0 | 0.00 | 0.00 | 0.00 | 81 | 1016.0 |
| 20260902093703 | 77 | 46 | 0.0 | 0.0 | 0.00 | 0.00 | 0.00 | 81 | 1016.0 |
| 20260902093203 | 77 | 46 | 0.0 | 0.0 | 0.00 | 0.00 | 0.00 | 81 | 1016.0 |
| 20260902092203 | 77 | 44 | 0.0 | 0.0 | 0.00 | 0.00 | 0.00 | 81 | 1016.0 |
| 20260902091703 | 77 | 44 | 0.0 | 0.0 | 0.00 | 0.00 | 0.00 | 81 | 1016.0 |
| 20260902091204 | 77 | 43 | 0.0 | 0.0 | 0.00 | 0.00 | 0.00 | 81 | 1015.9 |
| 20260902090704 | 77 | 43 | 0.0 | 0.0 | 0.00 | 0.00 | 0.00 | 81 | 1015.8 |
| 20260902090203 | 77 | 44 | 0.0 | 0.0 | 0.00 | 0.00 | 0.00 | 81 | 1015.8 |
| 20260902085204 | 77 | 44 | 0.0 | 0.0 | 0.00 | 0.00 | 0.00 | 81 | 1015.7 |
| 20260902084704 | 77 | 44 | 0.0 | 0.0 | 0.00 | 0.00 | 0.00 | 81 | 1015.7 |
| 20260902084203 | 77 | 44 | 0.0 | 0.0 | 0.00 | 0.00 | 0.00 | 80 | 1015.5 |
| 20260902083703 | 77 | 44 | 0.0 | 0.0 | 0.00 | 0.00 | 0.00 | 80 | 1015.4 |
| 20260902083204 | 77 | 44 | 0.0 | 0.0 | 0.00 | 0.00 | 0.00 | 80 | 1015.4 |
| 20260902082703 | 77 | 44 | 0.0 | 0.0 | 0.00 | 0.00 | 0.00 | 79 | 1015.4 |
| 20260902082203 | 77 | 44 | 0.0 | 0.0 | 0.00 | 0.00 | 0.00 | 79 | 1015.4 |
| 20260902081203 | 78 | 43 | 0.0 | 0.0 | 0.00 | 0.00 | 0.00 | 79 | 1015.3 |
| 20260902080704 | 78 | 43 | 0.0 | 0.0 | 0.00 | 0.00 | 0.00 | 79 | 1015.3 |
| 20260902080203 | 78 | 44 | 0.0 | 0.0 | 0.00 | 0.00 | 0.00 | 79 | 1015.3 |
| 20260902075703 | 78 | 45 | 0.0 | 0.0 | 0.00 | 0.00 | 0.00 | 79 | 1015.3 |
| 20260902075203 | 78 | 48 | 0.0 | 0.0 | 0.00 | 0.00 | 0.00 | 79 | 1015.3 |
| 20260902074704 | 78 | 48 | 0.0 | 0.0 | 0.00 | 0.00 | 0.00 | 78 | 1015.3 |
| 20260902074204 | 78 | 47 | 0.0 | 0.0 | 0.00 | 0.00 | 0.00 | 78 | 1015.3 |
| 20260902073704 | 79 | 48 | 0.0 | 0.0 | 0.00 | 0.00 | 0.00 | 78 | 1015.3 |
| 20260902073203 | 79 | 46 | 0.0 | 0.0 | 0.00 | 0.00 | 0.00 | 78 | 1015.3 |
| 20260902072203 | 79 | 41 | 0.0 | 0.0 | 0.00 | 0.00 | 0.00 | 77 | 1015.2 |
| 20260902071703 | 79 | 42 | 0.0 | 0.0 | 0.00 | 0.00 | 0.00 | 77 | 1015.3 |
| 20260902071203 | 80 | 45 | 0.0 | 0.0 | 0.00 | 0.00 | 0.00 | 77 | 1015.3 |
| 20260902070704 | 80 | 52 | 0.0 | 0.0 | 0.00 | 0.00 | 0.00 | 77 | 1015.3 |
| 20260902070203 | 80 | 56 | 0.0 | 0.0 | 0.00 | 0.00 | 0.00 | 77 | 1015.3 |
| 20260902065704 | 80 | 72 | 0.0 | 0.0 | 0.00 | 0.00 | 0.00 | 77 | 1015.2 |
| 20260902065204 | 80 | 62 | 0.0 | 0.0 | 0.00 | 0.00 | 0.00 | 77 | 1015.3 |
| 20260902064203 | 80 | 20 | 0.0 | 0.0 | 0.00 | 0.00 | 0.00 | 77 | 1015.2 |
| 20260902063704 | 80 | 41 | 0.0 | 0.0 | 0.00 | 0.00 | 0.00 | 76 | 1015.1 |
| 20260902063203 | 80 | 41 | 0.0 | 0.0 | 0.00 | 0.00 | 0.00 | 76 | 1015.2 |
| 20260902062704 | 80 | 55 | 0.0 | 0.0 | 0.00 | 0.00 | 0.00 | 76 | 1015.2 |
| 20260902062203 | 80 | 50 | 0.0 | 0.0 | 0.00 | 0.00 | 0.00 | 76 | 1015.2 |
| 20260902061704 | 80 | 47 | 0.0 | 0.0 | 0.00 | 0.00 | 0.00 | 76 | 1015.3 |
| 20260902061203 | 80 | 48 | 0.0 | 0.0 | 0.00 | 0.00 | 0.00 | 76 | 1015.2 |
| 20260902060703 | 80 | 45 | 0.0 | 0.0 | 0.00 | 0.00 | 0.00 | 76 | 1015.2 |
| 20260902060204 | 81 | 48 | 0.0 | 0.0 | 0.00 | 0.00 | 0.00 | 76 | 1015.2 |
| 20260902055704 | 80 | 52 | 0.0 | 0.0 | 0.00 | 0.00 | 0.00 | 76 | 1015.3 |
| 20260902054203 | 81 | 44 | 0.0 | 0.0 | 0.00 | 0.00 | 0.00 | 75 | 1015.3 |
| 20260902053704 | 81 | 44 | 0.0 | 0.0 | 0.00 | 0.00 | 0.00 | 75 | 1015.3 |
| 20260902051703 | 81 | 199 | 0.0 | 0.0 | 0.00 | 0.00 | 0.00 | 75 | 1015.3 |
| 20260902051203 | 81 | 203 | 0.0 | 0.0 | 0.00 | 0.00 | 0.00 | 75 | 1015.4 |
| 20260902050703 | 81 | 204 | 0.0 | 0.0 | 0.00 | 0.00 | 0.00 | 74 | 1015.3 |
| 20260902045204 | 82 | 204 | 0.0 | 0.0 | 0.00 | 0.00 | 0.00 | 74 | 1015.3 |
| 20260902044704 | 82 | 204 | 0.0 | 0.0 | 0.00 | 0.00 | 0.00 | 74 | 1015.3 |
| 20260902044203 | 82 | 204 | 0.0 | 0.0 | 0.00 | 0.00 | 0.00 | 74 | 1015.4 |
| 20260902043704 | 82 | 204 | 0.0 | 0.0 | 0.00 | 0.00 | 0.00 | 73 | 1015.3 |
| 20260902042704 | 82 | 204 | 0.0 | 0.0 | 0.00 | 0.00 | 0.00 | 73 | 1015.3 |
| 20260902042204 | 82 | 204 | 0.0 | 0.0 | 0.00 | 0.00 | 0.00 | 73 | 1015.3 |
| 20260902041702 | 82 | 204 | 0.0 | 0.0 | 0.00 | 0.00 | 0.00 | 73 | 1015.3 |
| 20260902040704 | 82 | 198 | 0.0 | 0.0 | 0.00 | 0.00 | 0.00 | 72 | 1015.3 |
| 20260902040204 | 82 | 202 | 0.0 | 0.0 | 0.00 | 0.00 | 0.00 | 72 | 1015.4 |
| 20260902035704 | 82 | 203 | 0.0 | 0.0 | 0.00 | 0.00 | 0.00 | 72 | 1015.4 |
| 20260902034703 | 83 | 204 | 0.0 | 0.0 | 0.00 | 0.00 | 0.00 | 72 | 1015.4 |
| 20260902033704 | 83 | 204 | 0.0 | 0.0 | 0.00 | 0.00 | 0.00 | 71 | 1015.4 |
| 20260902033203 | 83 | 204 | 0.0 | 0.0 | 0.00 | 0.00 | 0.00 | 71 | 1015.4 |
| 20260902032203 | 84 | 204 | 0.0 | 0.0 | 0.00 | 0.00 | 0.00 | 70 | 1015.3 |
| 20260902031703 | 84 | 204 | 0.0 | 0.0 | 0.00 | 0.00 | 0.00 | 70 | 1015.3 |
| 20260902031203 | 84 | 204 | 0.0 | 0.0 | 0.00 | 0.00 | 0.00 | 69 | 1015.3 |
| 20260902030704 | 84 | 47 | 0.0 | 0.0 | 0.00 | 0.00 | 0.00 | 70 | 1015.3 |
| 20260902025703 | 84 | 50 | 0.0 | 0.0 | 0.00 | 0.00 | 0.00 | 69 | 1015.3 |
| 20260902024704 | 84 | 46 | 0.0 | 0.0 | 0.00 | 0.00 | 0.00 | 69 | 1015.3 |
| 20260902024205 | 84 | 44 | 0.0 | 0.0 | 0.00 | 0.00 | 0.00 | 70 | 1015.3 |
| 20260902023704 | 84 | 44 | 0.0 | 2.0 | 0.00 | 0.00 | 0.00 | 69 | 1015.3 |
| 20260902022704 | 84 | 58 | 0.0 | 0.0 | 0.00 | 0.00 | 0.00 | 69 | 1015.2 |
| 20260902022203 | 84 | 66 | 0.0 | 0.0 | 0.00 | 0.00 | 0.00 | 69 | 1015.2 |
| 20260902021703 | 84 | 62 | 0.0 | 0.0 | 0.00 | 0.00 | 0.00 | 69 | 1015.2 |
| 20260902021203 | 85 | 62 | 0.0 | 0.0 | 0.00 | 0.00 | 0.00 | 69 | 1015.2 |
| 20260902020703 | 85 | 58 | 0.0 | 0.0 | 0.00 | 0.00 | 0.00 | 69 | 1015.2 |
| 20260902020204 | 85 | 60 | 0.0 | 0.0 | 0.00 | 0.00 | 0.00 | 68 | 1015.3 |
| 20260902015703 | 85 | 61 | 0.0 | 0.0 | 0.00 | 0.00 | 0.00 | 68 | 1015.3 |
| 20260902014703 | 85 | 55 | 0.0 | 0.0 | 0.00 | 0.00 | 0.00 | 67 | 1015.3 |
| 20260902014203 | 85 | 54 | 0.0 | 0.0 | 0.00 | 0.00 | 0.00 | 67 | 1015.2 |
| 20260902013704 | 86 | 55 | 0.0 | 0.0 | 0.00 | 0.00 | 0.00 | 66 | 1015.3 |
| 20260902012703 | 86 | 59 | 0.0 | 0.0 | 0.00 | 0.00 | 0.00 | 66 | 1015.2 |
| 20260902012203 | 86 | 62 | 0.0 | 0.0 | 0.00 | 0.00 | 0.00 | 66 | 1015.1 |
| 20260902011703 | 86 | 68 | 0.0 | 0.0 | 0.00 | 0.00 | 0.00 | 65 | 1015.0 |
| 20260902011205 | 87 | 66 | 0.0 | 0.0 | 0.00 | 0.00 | 0.00 | 64 | 1015.0 |
| 20260902010203 | 87 | 64 | 0.0 | 0.0 | 0.00 | 0.00 | 0.00 | 63 | 1014.9 |
| 20260902005703 | 87 | 65 | 0.0 | 0.0 | 0.00 | 0.00 | 0.00 | 63 | 1014.8 |
| 20260902005203 | 88 | 81 | 0.0 | 0.0 | 0.00 | 0.00 | 0.00 | 62 | 1014.9 |
| 20260902004703 | 88 | 74 | 0.0 | 0.0 | 0.00 | 0.00 | 0.00 | 62 | 1014.8 |
| 20260902003703 | 89 | 93 | 0.0 | 0.0 | 0.00 | 0.00 | 0.00 | 61 | 1014.8 |
| 20260902003203 | 89 | 93 | 0.0 | 0.0 | 0.00 | 0.00 | 0.00 | 60 | 1014.7 |
| 20260902002704 | 89 | 102 | 0.0 | 0.0 | 0.00 | 0.00 | 0.00 | 59 | 1014.7 |
| 20260902001703 | 90 | 96 | 0.0 | 0.0 | 0.00 | 0.00 | 0.00 | 58 | 1014.8 |
| 20260902001203 | 90 | 97 | 0.0 | 0.0 | 0.00 | 0.00 | 0.00 | 57 | 1014.9 |
| 20260902000703 | 90 | 215 | 0.0 | 0.0 | 0.00 | 0.00 | 0.00 | 57 | 1014.9 |
| 20260902000204 | 91 | 215 | 0.0 | 0.0 | 0.00 | 0.00 | 0.00 | 56 | 1014.9 |
| 20260901235203 | 91 | 215 | 0.0 | 0.0 | 0.00 | 0.00 | 0.00 | 55 | 1014.9 |
| 20260901234703 | 91 | 215 | 0.0 | 0.0 | 0.00 | 0.00 | 0.00 | 55 | 1014.9 |
| 20260901234203 | 92 | 215 | 0.0 | 2.0 | 0.00 | 0.00 | 0.00 | 54 | 1014.9 |
| 20260901233704 | 92 | 216 | 1.0 | 3.0 | 0.00 | 0.00 | 0.00 | 53 | 1015.0 |
| 20260901233203 | 92 | 217 | 1.0 | 3.0 | 0.00 | 0.00 | 0.00 | 54 | 1015.0 |
| 20260901232703 | 92 | 213 | 0.0 | 3.0 | 0.00 | 0.00 | 0.00 | 54 | 1015.0 |
| 20260901232204 | 92 | 209 | 0.0 | 3.0 | 0.00 | 0.00 | 0.00 | 54 | 1015.1 |
| 20260901231705 | 93 | 219 | 0.0 | 3.0 | 0.00 | 0.00 | 0.00 | 54 | 1015.0 |
| 20260901231202 | 93 | 215 | 0.0 | 1.0 | 0.00 | 0.00 | 0.00 | 53 | 1015.0 |
| 20260901230204 | 93 | 237 | 0.0 | 2.0 | 0.00 | 0.00 | 0.00 | 53 | 1015.1 |
| 20260901225205 | 94 | 218 | 1.0 | 3.0 | 0.00 | 0.00 | 0.00 | 51 | 1015.0 |
| 20260901224703 | 95 | 224 | 1.0 | 3.0 | 0.00 | 0.00 | 0.00 | 51 | 1015.0 |
| 20260901224204 | 95 | 234 | 2.0 | 5.0 | 0.00 | 0.00 | 0.00 | 50 | 1015.0 |
| 20260901223704 | 95 | 222 | 1.0 | 5.0 | 0.00 | 0.00 | 0.00 | 50 | 1015.0 |
| 20260901223203 | 96 | 223 | 2.0 | 5.0 | 0.00 | 0.00 | 0.00 | 50 | 1014.9 |
| 20260901222703 | 96 | 224 | 2.0 | 5.0 | 0.00 | 0.00 | 0.00 | 50 | 1014.9 |
| 20260901222203 | 96 | 243 | 1.0 | 3.0 | 0.00 | 0.00 | 0.00 | 49 | 1014.9 |
| 20260901221705 | 96 | 255 | 1.0 | 5.0 | 0.00 | 0.00 | 0.00 | 50 | 1014.9 |
| 20260901221203 | 96 | 238 | 3.0 | 7.0 | 0.00 | 0.00 | 0.00 | 49 | 1014.9 |
| 20260901220704 | 96 | 231 | 3.0 | 6.0 | 0.00 | 0.00 | 0.00 | 49 | 1014.9 |
| 20260901220204 | 96 | 214 | 3.0 | 6.0 | 0.00 | 0.00 | 0.00 | 49 | 1014.9 |
| 20260901215704 | 96 | 224 | 2.0 | 9.0 | 0.00 | 0.00 | 0.00 | 49 | 1014.9 |
| 20260901215205 | 96 | 215 | 3.0 | 9.0 | 0.00 | 0.00 | 0.00 | 48 | 1014.9 |
| 20260901214704 | 96 | 213 | 3.0 | 8.0 | 0.00 | 0.00 | 0.00 | 48 | 1014.9 |
| 20260901214204 | 96 | 207 | 2.0 | 6.0 | 0.00 | 0.00 | 0.00 | 49 | 1014.9 |
| 20260901213704 | 96 | 220 | 2.0 | 6.0 | 0.00 | 0.00 | 0.00 | 49 | 1014.8 |
| 20260901213205 | 96 | 178 | 2.0 | 8.0 | 0.00 | 0.00 | 0.00 | 49 | 1014.8 |
| 20260901212703 | 96 | 239 | 4.0 | 8.0 | 0.00 | 0.00 | 0.00 | 48 | 1014.9 |
| 20260901211704 | 96 | 226 | 2.0 | 6.0 | 0.00 | 0.00 | 0.00 | 52 | 1014.8 |
| 20260901211203 | 95 | 219 | 4.0 | 7.0 | 0.00 | 0.00 | 0.00 | 51 | 1014.9 |
| 20260901205204 | 95 | 241 | 1.0 | 5.0 | 0.00 | 0.00 | 0.00 | 51 | 1014.9 |
| 20260901204703 | 95 | 182 | 3.0 | 7.0 | 0.00 | 0.00 | 0.00 | 51 | 1015.0 |
| 20260901204203 | 95 | 224 | 2.0 | 8.0 | 0.00 | 0.00 | 0.00 | 51 | 1015.1 |
| 20260901203704 | 95 | 240 | 3.0 | 10.0 | 0.00 | 0.00 | 0.00 | 51 | 1015.1 |
| 20260901203203 | 95 | 221 | 3.0 | 7.0 | 0.00 | 0.00 | 0.00 | 52 | 1015.1 |
| 20260901202703 | 95 | 188 | 2.0 | 6.0 | 0.00 | 0.00 | 0.00 | 53 | 1015.1 |
| 20260901202204 | 94 | 210 | 3.0 | 7.0 | 0.00 | 0.00 | 0.00 | 52 | 1015.1 |
| 20260901201703 | 94 | 216 | 2.0 | 7.0 | 0.00 | 0.00 | 0.00 | 52 | 1015.1 |
| 20260901200703 | 94 | 225 | 2.0 | 8.0 | 0.00 | 0.00 | 0.00 | 53 | 1015.2 |
| 20260901200203 | 94 | 232 | 5.0 | 8.0 | 0.00 | 0.00 | 0.00 | 53 | 1015.2 |
| 20260901195704 | 94 | 227 | 3.0 | 9.0 | 0.00 | 0.00 | 0.00 | 54 | 1015.2 |
| 20260901195204 | 94 | 137 | 1.0 | 5.0 | 0.00 | 0.00 | 0.00 | 54 | 1015.2 |
| 20260901194703 | 94 | 217 | 2.0 | 8.0 | 0.00 | 0.00 | 0.00 | 55 | 1015.3 |
| 20260901194203 | 94 | 206 | 2.0 | 7.0 | 0.00 | 0.00 | 0.00 | 54 | 1015.4 |
| 20260901193704 | 93 | 219 | 1.0 | 3.0 | 0.00 | 0.00 | 0.00 | 55 | 1015.4 |
| 20260901193203 | 93 | 196 | 2.0 | 8.0 | 0.00 | 0.00 | 0.00 | 56 | 1015.4 |
| 20260901192703 | 93 | 219 | 2.0 | 8.0 | 0.00 | 0.00 | 0.00 | 55 | 1015.5 |
| 20260901192204 | 93 | 214 | 3.0 | 7.0 | 0.00 | 0.00 | 0.00 | 55 | 1015.5 |
| 20260901191704 | 93 | 208 | 6.0 | 12.0 | 0.00 | 0.00 | 0.00 | 55 | 1015.6 |
| 20260901190703 | 93 | 212 | 5.0 | 10.0 | 0.00 | 0.00 | 0.00 | 56 | 1015.8 |
| 20260901190204 | 93 | 224 | 2.0 | 5.0 | 0.00 | 0.00 | 0.00 | 56 | 1015.8 |
| 20260901185703 | 93 | 204 | 3.0 | 8.0 | 0.00 | 0.00 | 0.00 | 57 | 1015.9 |
| 20260901185203 | 93 | 213 | 3.0 | 8.0 | 0.00 | 0.00 | 0.00 | 56 | 1016.0 |
| 20260901184704 | 93 | 251 | 2.0 | 6.0 | 0.00 | 0.00 | 0.00 | 59 | 1016.0 |
| 20260901184204 | 93 | 211 | 3.0 | 9.0 | 0.00 | 0.00 | 0.00 | 56 | 1016.0 |
| 20260901183703 | 93 | 207 | 3.0 | 9.0 | 0.00 | 0.00 | 0.00 | 57 | 1016.1 |
| 20260901183203 | 93 | 215 | 2.0 | 8.0 | 0.00 | 0.00 | 0.00 | 56 | 1016.1 |
| 20260901182703 | 93 | 234 | 1.0 | 5.0 | 0.00 | 0.00 | 0.00 | 58 | 1016.0 |
| 20260901182203 | 93 | 225 | 2.0 | 8.0 | 0.00 | 0.00 | 0.00 | 57 | 1016.1 |
| 20260901181703 | 93 | 307 | 1.0 | 5.0 | 0.00 | 0.00 | 0.00 | 58 | 1016.0 |
| 20260901181203 | 92 | 205 | 3.0 | 5.0 | 0.00 | 0.00 | 0.00 | 58 | 1016.2 |
| 20260901180704 | 92 | 187 | 1.0 | 5.0 | 0.00 | 0.00 | 0.00 | 60 | 1016.2 |
| 20260901180203 | 92 | 215 | 1.0 | 3.0 | 0.00 | 0.00 | 0.00 | 60 | 1016.2 |
| 20260901175703 | 92 | 196 | 2.0 | 8.0 | 0.00 | 0.00 | 0.00 | 59 | 1016.2 |
| 20260901175203 | 92 | 193 | 3.0 | 7.0 | 0.00 | 0.00 | 0.00 | 58 | 1016.2 |
| 20260901174704 | 92 | 311 | 3.0 | 8.0 | 0.00 | 0.00 | 0.00 | 58 | 1016.3 |
| 20260901174204 | 92 | 210 | 2.0 | 8.0 | 0.00 | 0.00 | 0.00 | 58 | 1016.4 |
| 20260901173204 | 92 | 199 | 3.0 | 7.0 | 0.00 | 0.00 | 0.00 | 58 | 1016.5 |
| 20260901172204 | 92 | 165 | 4.0 | 10.0 | 0.00 | 0.00 | 0.00 | 58 | 1016.6 |
| 20260901171704 | 92 | 216 | 5.0 | 9.0 | 0.00 | 0.00 | 0.00 | 59 | 1016.6 |
| 20260901171203 | 91 | 242 | 2.0 | 6.0 | 0.00 | 0.00 | 0.00 | 60 | 1016.6 |
| 20260901170704 | 91 | 227 | 1.0 | 6.0 | 0.00 | 0.00 | 0.00 | 61 | 1016.7 |
| 20260901170204 | 91 | 239 | 3.0 | 9.0 | 0.00 | 0.00 | 0.00 | 61 | 1016.7 |
| 20260901165704 | 91 | 221 | 3.0 | 9.0 | 0.00 | 0.00 | 0.00 | 60 | 1016.7 |
| 20260901165203 | 91 | 227 | 4.0 | 8.0 | 0.00 | 0.00 | 0.00 | 61 | 1016.7 |
| 20260901164704 | 90 | 207 | 3.0 | 8.0 | 0.00 | 0.00 | 0.00 | 61 | 1016.7 |
| 20260901164204 | 90 | 269 | 3.0 | 8.0 | 0.00 | 0.00 | 0.00 | 62 | 1016.8 |
| 20260901163704 | 90 | 224 | 5.0 | 8.0 | 0.00 | 0.00 | 0.00 | 60 | 1016.9 |
| 20260901163204 | 90 | 227 | 2.0 | 7.0 | 0.00 | 0.00 | 0.00 | 61 | 1016.8 |
| 20260901162703 | 90 | 237 | 3.0 | 8.0 | 0.00 | 0.00 | 0.00 | 61 | 1016.9 |
| 20260901162203 | 90 | 259 | 4.0 | 9.0 | 0.00 | 0.00 | 0.00 | 61 | 1017.0 |
| 20260901161703 | 90 | 191 | 5.0 | 9.0 | 0.00 | 0.00 | 0.00 | 62 | 1016.9 |
| 20260901161203 | 90 | 217 | 3.0 | 9.0 | 0.00 | 0.00 | 0.00 | 62 | 1016.9 |
| 20260901160703 | 90 | 233 | 3.0 | 9.0 | 0.00 | 0.00 | 0.00 | 62 | 1016.9 |
| 20260901160204 | 89 | 232 | 3.0 | 8.0 | 0.00 | 0.00 | 0.00 | 62 | 1016.9 |
| 20260901155703 | 89 | 207 | 2.0 | 6.0 | 0.00 | 0.00 | 0.00 | 64 | 1016.9 |
| 20260901154703 | 89 | 202 | 3.0 | 7.0 | 0.00 | 0.00 | 0.00 | 62 | 1017.1 |
| 20260901154204 | 89 | 262 | 2.0 | 5.0 | 0.00 | 0.00 | 0.00 | 64 | 1017.1 |
| 20260901153204 | 88 | 234 | 3.0 | 7.0 | 0.00 | 0.00 | 0.00 | 65 | 1017.2 |
| 20260901152704 | 88 | 228 | 3.0 | 7.0 | 0.00 | 0.00 | 0.00 | 66 | 1017.2 |
| 20260901152204 | 87 | 237 | 5.0 | 12.0 | 0.00 | 0.00 | 0.00 | 65 | 1017.2 |
| 20260901151703 | 87 | 231 | 4.0 | 9.0 | 0.00 | 0.00 | 0.00 | 65 | 1017.2 |
| 20260901151203 | 87 | 202 | 3.0 | 8.0 | 0.00 | 0.00 | 0.00 | 67 | 1017.2 |
| 20260901150703 | 87 | 225 | 3.0 | 8.0 | 0.00 | 0.00 | 0.00 | 66 | 1017.2 |
| 20260901150203 | 86 | 217 | 5.0 | 9.0 | 0.00 | 0.00 | 0.00 | 66 | 1017.1 |
| 20260901145704 | 86 | 223 | 3.0 | 5.0 | 0.00 | 0.00 | 0.00 | 67 | 1017.1 |
| 20260901145203 | 86 | 216 | 3.0 | 7.0 | 0.00 | 0.00 | 0.00 | 68 | 1017.1 |
| 20260901144703 | 86 | 209 | 3.0 | 8.0 | 0.00 | 0.00 | 0.00 | 68 | 1017.2 |
| 20260901143703 | 85 | 236 | 3.0 | 7.0 | 0.00 | 0.00 | 0.00 | 70 | 1017.2 |
| 20260901142203 | 84 | 216 | 3.0 | 8.0 | 0.00 | 0.00 | 0.00 | 72 | 1017.3 |
| 20260901141704 | 83 | 244 | 2.0 | 5.0 | 0.00 | 0.00 | 0.00 | 73 | 1017.4 |
| 20260901141203 | 83 | 238 | 3.0 | 7.0 | 0.00 | 0.00 | 0.00 | 74 | 1017.4 |